Hourly Data Report for September 16, 2017

All times are specified in Local Standard Time (LST). Add 1 hour to adjust for Daylight Saving Time where and when it is observed.

CLYDE RIVER A
NUNAVUT

70°29'09.000" N
68°31'01.000" W
26.50 m
2400804
71090
YCY

Download Data

Hourly Data (September 2017)
Hourly Data Report for September 16, 2017
Temp Definition
°C
Dew Point Temp Definition
°C
Rel Hum Definition
%
Wind Dir Definition
10's deg

Wind Spd Definition
km/h
Visibility Definition
km
Stn Press Definition
kPa
Hmdx Definition


Wind Chill Definition


Weather Definition


TIME
00:00 Legend Double Dagger -0.2 -2.4 85 30 22 16.1 100.40   -6 LegendNANA
01:00 Legend Double Dagger -0.3 -2.1 88 29 21 16.1 100.39   -6 LegendNANA
02:00 Legend Double Dagger -0.3 -2.6 84 29 18 16.1 100.38   -5 LegendNANA
03:00 Legend Double Dagger -0.4 -2.8 84 28 17 16.1 100.38   -5 LegendNANA
04:00 Legend Double Dagger -0.7 -3.0 85 28 15 16.1 100.38   -5 LegendNANA
05:00 Legend Double Dagger -0.7 -3.1 84 29 15 16.1 100.38   -5 LegendNANA
06:00 Legend Double Dagger -0.9 -3.4 83 29 18 16.1 100.38   -6 LegendNANA
07:00 Legend Double Dagger -1.2 -3.9 82 LegendMM LegendMM LegendMM 100.39     LegendNANA
08:00 Legend Double Dagger -0.9 -3.6 82 LegendMM LegendMM LegendMM 100.38     LegendNANA
09:00 Legend Double Dagger 0.6 -3.2 76 28 22 16.1 100.35     LegendNANA
10:00 Legend Double Dagger 1.4 -2.9 73 28 17 16.1 100.34     LegendNANA
11:00 Legend Double Dagger 2.6 -2.9 67 30 17 16.1 100.33     LegendNANA
12:00 Legend Double Dagger 3.2 -3.3 62 30 21 16.1 100.31     LegendNANA
13:00 Legend Double Dagger 3.5 -2.8 63 29 18 16.1 100.31     LegendNANA
14:00 Legend Double Dagger 3.7 -3.0 62 30 18 16.1 100.34     LegendNANA
15:00 Legend Double Dagger 3.8 -2.3 65 33 11 16.1 100.38     LegendNANA
16:00 Legend Double Dagger 3.5 -2.5 65 28 9 16.1 100.40     LegendNANA
17:00 Legend Double Dagger 2.3 -1.4 77 31 9 16.1 100.44     LegendNANA
18:00 Legend Double Dagger -0.1 -2.3 85 31 8 16.1 100.46   -3 LegendNANA
19:00 Legend Double Dagger -0.6 -3.4 81 28 8 16.1 100.49   -3 LegendNANA
20:00 Legend Double Dagger -1.8 -3.8 86 31 13 16.1 100.53   -6 LegendNANA
21:00 Legend Double Dagger -1.6 -3.5 87 30 13 16.1 100.54   -6 LegendNANA
22:00 Legend Double Dagger 0.0 -2.8 81 29 11 16.1 100.56   -4 LegendNANA
23:00 Legend Double Dagger 0.0 -2.6 83 29 8 16.1 100.57   -3 LegendNANA

Notes on Data Quality.

Legend

  • E = Estimated
  • M = Missing
  • NA = Not Available
  • ‡ = Partner data that is not subject to review by the National Climate Archives
Date modified: